OPKC

Karachi/Jinnah International Airport

Airport
ICAO code
OPKC
IATA Code
KHI
Summary
ICAO Region
MID
ICAO Territory
Location

Karachi, Sindh

Serving
Karachi
Elevation
100 ft
Coordinates
24° 54' 17" N , 67° 9' 26" E
KCC
Metar
Observation
OPKC 292300Z 03003KT 4000 HZ NSC 14/07 Q1015 NOSIG
Station
Karachi Airport
Date/Time
2022-11-29 23:00:00
Wind direction
30°
Wind speed
03 kts
Lowest cloud amount
nil significant cloud
Temperature
14°C
Dew point
7°C
Humidity
62%
QNH
1015 hPa
Weather condition
n/a

International airport serving Karachi, Pakistan.

Climatology

Mild Desert Climate (Köppen climate classification BWh).

Karachi tends to have a relatively mild, arid climate with low average precipitation levels (approximately 250 mm per annum), the bulk of which occurs during the July-August monsoon season. Winters are mild & dry, while the summers are hot & humid; the proximity to the sea maintains humidity levels at a near-constant high and cool sea breezes relieve the heat of the summer months.

Runways

Designator Length Width Surface Rops
07L/25R 3200 46 CON Yes/Yes
07R/25L 3400 46 CON Yes/Yes

SKYbrary Partners:

Safety knowledge contributed by: